Regional Weather Roundup
Issued by NWS Portland, ME

Current Version | Previous Version | Text Only | Print | Product List | Glossary On
Versions: 1 2 3 4 5 6 7 8 9 10 11 12 13 14 15 16 17 18 19 20 21 22 23 24 25 26 27 28 29 30 31 32 33 34 35 36 37 38 39 40 41 42 43 44 45 46 47 48 49 50
000
ASUS41 KGYX 020810
RWRGYX
WEATHER ROUNDUP FOR MAINE AND NEW HAMPSHIRE
NATIONAL WEATHER SERVICE GRAY ME
400 AM EDT MON MAY 02 2016

MEZ002-005-006-010-012-015-018-020-021-024-026-027-029-020900-
MAINE

CITY           SKY/WX    TMP DP  RH WIND       PRES   REMARKS
PORTLAND       CLOUDY    43  41  93 SE8       30.13S FOG
SANFORD        CLOUDY    43  37  81 NE5       30.11F
BAR HARBOR     CLOUDY    43  34  70 CALM      30.18S
WISCASSET      CLOUDY    44  40  85 E5        30.15S
ROCKLAND       LGT RAIN  42  35  76 E6        30.16S
FRYEBURG       LGT RAIN  40  39  97 N3        30.11F FOG
LEWISTONAUBURN CLOUDY    41  37  87 E3        30.12F
AUGUSTA        LGT RAIN  42  35  76 SE7       30.15R
WATERVILLE     CLOUDY    42  30  62 CALM      30.12S
BANGOR         CLOUDY    45  31  58 S3        30.17R
GREENVILLE       N/A     37  36  96 S5        30.10R
MILLINOCKET    CLOUDY    43  34  70 CALM      30.15S
HOULTON        CLOUDY    41  38  89 CALM      30.15F
PRESQUE ISLE   LGT RAIN  46  37  71 SW6       30.16R
FRENCHVILLE    LGT RAIN  42  28  57 SE6       30.12R
CARIBOU        LGT RAIN  46  36  68 SW12      30.13R
$$

NHZ002-005-008-009-011-012-014-020900-
NEW HAMPSHIRE

CITY           SKY/WX    TMP DP  RH WIND       PRES   REMARKS
PORTSMOUTH     CLOUDY    44  43  96 NE6       30.08S FOG
ROCHESTER      CLOUDY    42  40  92 E5        30.09S FOG
NASHUA         CLOUDY    42  41  96 NW5       30.09F FOG
MANCHESTER     DRZL/FOG  42  40  92 N6        30.07F VSB 1
CONCORD        CLOUDY    41  39  93 NE5       30.09F FOG
LACONIA        CLOUDY    39  37  93 CALM      30.10F
PLYMOUTH       RAIN      39  39  98 CALM      30.09F
BERLIN         CLOUDY    39  34  82 CALM      30.06F
WHITEFIELD     LGT RAIN  39  35  86 CALM      30.05F
JAFFREY        CLOUDY    39  37  92 CALM      30.06S
KEENE          CLOUDY    41  39  93 CALM      30.07F
LEBANON        CLOUDY    41  38  89 CALM      30.06F
MT WASHINGTON  LGTSLEET  27  27 100 S26         N/A  VSB 0   WCI  11
$$

VTZ005-007-008-020900-
VERMONT

CITY           SKY/WX    TMP DP  RH WIND       PRES   REMARKS
ST JOHNSBURY     N/A     40  37  89 MISG      30.05F
MONTPELIER     CLOUDY    38  36  92 SE5       30.07F
BURLINGTON     CLOUDY    45  41  86 S3        30.01F
$$

MAZ007-012-024-CTZ003-RIZ002-NYZ038-NYZ072-020900-
SOUTHERN NEW ENGLAND AND NY

CITY           SKY/WX    TMP DP  RH WIND       PRES   REMARKS
BOSTON         DRIZZLE   46  44  93 NE8       30.07F FOG
WORCESTER      FOG       38  38 100 NE8       30.04S VSB 1/4
NANTUCKET      LGT RAIN  50  48  93 E12       29.99F FOG
PROVIDENCE     CLOUDY    45  43  93 N10       30.05S FOG
HARTFORD       DRIZZLE   42  40  92 N9        30.04F FOG
ALBANY         CLOUDY    45  40  82 S7        30.02F
NEW YORK CITY  CLOUDY    46  43  89 N6        30.03F FOG
$$

ANZ081-ANZ082-ANZ150-NHZ014-MEZ023>029-020900-
COASTAL MARINE OBSERVATIONS

STATION/POSITION TIME  TEMP    WIND        PRES    WAVE
                       AIR SEA DIR/SP/G            HT/PER
                 (UTC) (F)     (DEG/KT/KT) (MB)    (FT/S)
MOUNT DESERT ROC 0800   44      70/  7/  7 1021.5F
MATINICUS ROCK   0700   44     110/  8/  9 1020.8F
ISLE OF SHOALS   0700   44     100/ 10/ 12 1018.4F
CASHES LEDGE BUO 0750   45 45   90/ 12/ 12 1019.5F   4/ 9
GEORGES BANK BUO 0750   49 48              1018.4F   6/ 9
$$

.............KEY..............
   WCI - WIND CHILL
   TC  - TEMPERATURE IN CELSIUS
   VSB - VISIBILITY IN MILES
   HX  - HEAT INDEX
   FAIR- INDICATES FEW OR NO CLOUDS BELOW 12,000 FT, WITH NO
         SIGNIFICANT WEATHER AND/OR OBSTRUCTIONS TO VISIBILITY.






USA.gov is the U.S. government's official web portal to all federal, state and local government web resources and services.